Regional Weather Roundup
Issued by NWS

Home | Current Version | Previous Version | Text Only | Print | Product List | Glossary Off
Versions: 1 2 3 4 5 6 7 8 9 10 11 12 13 14 15 16 17 18 19 20 21 22 23 24 25 26 27 28 29 30 31 32 33 34 35 36 37 38 39 40 41 42 43 44 45 46 47 48 49 50

980
ASUS43 KDMX 172206
RWRIA

WEATHER ROUNDUP FOR IOWA
NATIONAL WEATHER SERVICE DES MOINES IA
400 PM CST WED JAN 17 2018

NOTE: "FAIR" INDICATES FEW OR NO CLOUDS BELOW 12,000 FEET WITH NO
SIGNIFICANT WEATHER AND/OR OBSTRUCTIONS TO VISIBILITY.

* - THESE STATIONS ARE NOT NWS STATIONS...THUS NOT UNDER NWS
QUALITY CONTROL.  THEY ALSO DO NOT REPORT WEATHER SUCH
AS PRECIPITATION OR FOG.

IAZ001>003-012>014-020>022-031>034-043>046-172300-
   NORTHWEST IOWA

CITY           SKY/WX    TMP DP  RH WIND       PRES   REMARKS
CARROLL *      SUNNY     23  12  63 SW20G26   30.31S WCI   8
CHEROKEE *     SUNNY     31  17  58 SW15G21   30.25F WCI  20
DENISON *      SUNNY     28  14  54 SW17G24   30.33S WCI  16
LE MARS *      SUNNY     34  18  51 S16G22    30.24F WCI  23
ORANGE CITY *  SUNNY     34  19  55 SW16      30.22S WCI  23
SHELDON *      SUNNY     32  18  55 SW17      30.19S WCI  21
SIOUX CITY     SUNNY     35  19  52 SW14      30.29F WCI  26
SPENCER        SUNNY     30  16  56 SW16G24   30.22R WCI  19
STORM LAKE *   SUNNY     27  16  63 SW22G29   30.25S WCI  12
$$

IAZ055>058-069>071-079>083-090>094-172300-
   SOUTHWEST IOWA

CITY           SKY/WX    TMP DP  RH WIND       PRES   REMARKS
ATLANTIC *     SUNNY     25  12  58 SW17      30.38S WCI  11
AUDUBON *      SUNNY     25  12  58 SW13G20   30.35S WCI  13
CLARINDA *     SUNNY     25  12  58 SW14      30.46S WCI  13
COUNCIL BLFS * SUNNY     25  12  58 S14       30.38S WCI  13
CRESTON *      SUNNY     23  10  58 SW17G23   30.40F WCI   9
HARLAN  *      SUNNY     23  12  63 SW16      30.40R WCI  10
LAMONI         SUNNY     23   8  52 SW16      30.43F WCI  10
RED OAK *      SUNNY     25  12  58 SW15      30.42S WCI  12
SHENANDOAH *   SUNNY     25  12  58 SW14      30.45S WCI  13
$$

IAZ047>049-059>061-072>074-084-172300-
   CENTRAL IOWA

CITY           SKY/WX    TMP DP  RH WIND       PRES   REMARKS
AMES           SUNNY     24  13  62 SW18      30.35F WCI  10
ANKENY *       SUNNY     27   9  46 SW14G21   30.39F WCI  15
BOONE *        SUNNY     25  12  58 SW17      30.31F WCI  11
CHARITON *     SUNNY     25   7  46 SW14G22   30.42S WCI  13
DES MOINES     SUNNY     25   9  50 SW16      30.39S WCI  12
GRINNELL*      CLEAR     23  11  58 SW16      30.39F WCI  10
KNOXVILLE *    SUNNY     25   5  42 SW17      30.39F WCI  11
MARSHALLTOWN   CLEAR     24  11  57 SW15      30.34F WCI  11
NEWTON *       CLEAR     25  10  54 SW16      30.38F WCI  12
PELLA *        SUNNY     26   8  45 SW12G20   30.42F WCI  16
PERRY *          N/A     26  12  55 SW12      30.36S WCI  15
$$

IAZ004>006-015-016-023>025-035-036-172300-
   NORTH CENTRAL IOWA

CITY           SKY/WX    TMP DP  RH WIND       PRES   REMARKS
ALGONA *       CLEAR     28  23  80 SW21      30.22S WCI  15
CLARION *      CLEAR     25  16  68 SW23      30.26F WCI  10
ESTHERVILLE    CLEAR     28  17  63 SW23G32   30.16F WCI  14
FORT DODGE *   SUNNY     25  14  63 SW18      30.28F WCI  11
MASON CITY     CLEAR     24  12  60 SW16      30.24F WCI  11
FOREST CITY *    N/A     27  18  69 SW14      30.22S WCI  15
WEBSTER CITY * CLEAR     25  12  58 SW20      30.27F WCI  11
IOWA FALLS *     N/A     25  14  63 SW17      30.31F HAZE    WCI  11
$$

IAZ007>011-017>019-026>030-037>042-050>054-066-172300-
   NORTHEAST IOWA

CITY           SKY/WX    TMP DP  RH WIND       PRES   REMARKS
CEDAR RAPIDS     N/A     23  10  57 SW18      30.37F WCI   9
CHARLES CITY *   N/A     25  12  58 SW14G21   30.27S WCI  13
CLINTON *        N/A     20  12  71 SW17      30.40F WCI   5
DECORAH *        N/A     23  10  58 SW8G16    30.24S WCI  14
DUBUQUE          N/A     19   8  62 SW16      30.31F WCI   4
MONTICELLO *     N/A     23  10  58 SW14      30.36F WCI  11
OELWEIN *        N/A     21  14  73 SW16G23   30.31F WCI   7
WATERLOO         N/A     23   9  55 SW18G24   30.31F WCI   9
$$

IAZ064-065-067-068-078-172300-
   EAST CENTRAL IOWA

CITY           SKY/WX    TMP DP  RH WIND       PRES   REMARKS
DAVENPORT        N/A     22  10  60 SW18      30.43F WCI   7
IOWA CITY        N/A     24  10  55 SW13      30.43F WCI  12
MT. PLEASANT * CLEAR     23  12  63 SW14      30.46S WCI  11
MUSCATINE *      N/A     23  12  63 SW10G17   30.45F WCI  12
QUAD CITIES      N/A     22  11  62 SW12      30.43F WCI  10
$$

IAZ062-063-075>077-085>089-095>099-172300-
   SOUTHEAST IOWA

CITY           SKY/WX    TMP DP  RH WIND       PRES   REMARKS
BURLINGTON     CLEAR     21  10  62 SW13      30.47F WCI   9
FAIRFIELD *    CLEAR     23   9  54 SW14      30.44S WCI  11
FORT MADISON * CLEAR     21  10  63 SW12      30.48F WCI   9
KEOKUK *       CLEAR     21  10  63 SW13      30.49S WCI   9
OSKALOOSA *      N/A     24  11  59 SW14      30.43S WCI  11
OTTUMWA        CLEAR     24   9  52 SW14      30.42F WCI  12
WASHINGTON *   CLEAR     23  12  63 SW12G21   30.44F WCI  12
$$

ABBREVIATIONS USED IN REMARKS
   TC - TEMPERATURES IN CELSIUS
  WCI - WIND CHILL INDEX
   HX - HEAT INDEX
  VSB - VISIBILITY
$$





USA.gov is the U.S. government's official web portal to all federal, state and local government web resources and services.